Home > Weather > Gaborone > Past weeks

Flag for Botswana Weather for the Past 2 Weeks in Gaborone, Botswana

Now
66 °F

Thunderstorms. Passing clouds.


Feels Like: 66 °F
Forecast: 68 / 87 °F
Wind: 16 mph from Northeast

Location: Seretse Khama International Airport

Current Time: Feb 8, 2016 at 11:21:40 PM

Latest Report: Feb 8, 2016 at 11:00 PM


Visibility: N/A

Pressure: 30.09 "Hg (26.74 "Hg at 1009m altitude)

Humidity: 94%

Dew point: 64 °F

Location of GaboroneLocation

Historic Weather in Gaborone — Graph

°F

Gaborone Temperature Yesterday

Maximum temperature yesterday: 99 °F (at 3:00 PM)
Minimum temperature yesterday: 73 °F (at 6:00 AM)
Average temperature yesterday: 86 °F

High & Low Weather Summary for the Past Weeks

 TemperatureHumidityPressure
High99 °F (Feb 3, 3:00 PM)88% (Jan 25, 5:00 AM)30.24 "Hg (Jan 25, 5:00 AM)
Low66 °F (Jan 26, 5:00 AM)13% (Jan 31, 4:00 PM)29.83 "Hg (Feb 4, 4:00 PM)
Average84 °F40%30.02 "Hg
* Reported Jan 24 10:00 PM — Feb 8 10:00 PM, Gaborone, Weather by CustomWeather, © 2016

Note: Actual official high and low records may vary slightly from our data, if they occured in-between our weather recording intervals... More about our weather records

Advertising

Gaborone Weather History for the Previous 24 Hours

 ConditionsComfort  
Time TempWeatherWind HumidityBarometerVisibility
10:00 PM
Mon, Feb 8
77 °FThunderstorms. Partly cloudy.17 mph54%30.04 "HgN/A
9:00 PM82 °FThunderstorms. Passing clouds.5 mph45%30.01 "HgN/A
8:00 PM88 °FThunderstorms. Passing clouds.6 mph35%29.98 "HgN/A
7:00 PM88 °FThunderstorms. Passing clouds.2 mph33%29.95 "HgN/A
6:00 PM88 °FThunderstorms. Partly sunny.8 mph33%29.95 "HgN/A
5:00 PM93 °FThunderstorms. Partly sunny.12 mph26%29.92 "HgN/A
4:00 PM95 °FThunderstorms. Partly sunny.14 mph26%29.95 "HgN/A
3:00 PM95 °FScattered clouds.13 mph26%29.95 "HgN/A
2:00 PM93 °FScattered clouds.9 mph30%30.01 "HgN/A
1:00 PM91 °FScattered clouds.12 mph32%30.04 "HgN/A
12:00 PM90 °FScattered clouds.10 mph41%30.04 "HgN/A
11:00 AM88 °FPassing clouds.12 mph40%30.07 "HgN/A
10:00 AM84 °FPassing clouds.13 mph45%30.07 "HgN/A
9:00 AM81 °FPassing clouds.14 mph51%30.07 "HgN/A
8:00 AM79 °FSunny.15 mph54%30.07 "Hg10 mi
7:00 AM75 °FSunny.10 mph61%30.04 "Hg10 mi
6:00 AM73 °FSunny.9 mph65%30.04 "Hg10 mi
5:00 AM73 °FSunny.8 mph61%30.01 "Hg10 mi
4:00 AM75 °FClear.9 mph57%29.98 "Hg10 mi
3:00 AM75 °FClear.7 mph65%29.95 "Hg10 mi
2:00 AM77 °FClear.1 mph61%29.95 "Hg10 mi
12:00 AM79 °FPassing clouds.3 mph54%29.98 "HgN/A
11:00 PM
Sun, Feb 7
82 °FClear.5 mph45%29.98 "Hg10 mi
Weather by CustomWeather, © 2016

See weather overviewHow to use our weather pages